Location: Tarleton Observatory
(32.2162°N, 98.0976°W)
Time: 20:34:04
(UTC-05:00)

Daily predictions for brighter satellites

Satellite Brightness Start Highest point End
(mag) Time Altitude Azimuth Time Altitude Azimuth Time Altitude Azimuth
Cosmos 1605 Rocket 4.2 20:02:01 10° SSE 20:07:59 49° E 20:14:04 10° NNE
Cosmos 2082 Rocket 3.6 20:05:26 10° NNE 20:09:28 20° ENE 20:13:28 10° ESE
FREGAT/IRIS 2.6 20:15:43 10° SSE 20:18:44 61° ENE 20:21:46 10° N
Meteor 1-24 Rocket 3.7 20:14:09 10° N 20:19:45 81° E 20:25:33 10° S
Delta 128 4.0 20:15:54 10° WSW 20:20:28 50° S 20:24:46 10° ESE
Cosmos 1271 Rocket 4.2 20:19:32 10° SE 20:22:17 18° E 20:25:04 10° NE
Aurora 2 Rocket 4.3 20:15:21 10° WSW 20:23:23 44° S 20:28:56 11° ESE
Cosmos 1758 3.6 20:19:46 10° SSE 20:23:31 43° E 20:27:19 10° NNE
H-2A R/B 3.2 20:20:47 10° WSW 20:24:45 62° SSE 20:47:54 10° E
COSMOS 2487 4.2 20:22:37 10° NNE 20:24:52 16° ENE 20:26:44 12° ESE
Cosmos 372 Rocket 4.1 20:22:15 10° S 20:27:09 50° ESE 20:32:07 10° NNE
Cosmos 2123 Rocket 4.0 20:21:49 10° N 20:28:06 71° E 20:34:19 10° SSE
Cosmos 1953 2.5 20:25:57 10° SSE 20:29:51 48° E 20:33:46 10° NNE
Cosmos 1818 4.1 20:24:44 10° NNW 20:29:52 41° ENE 20:34:57 10° SE
Lacrosse 5 4.4 20:28:06 10° W 20:31:41 19° NW 20:35:15 10° N
Cosmos 1766 4.4 20:28:16 10° SSW 20:31:59 47° W 20:35:46 10° N
Cosmos 1674 4.1 20:31:33 10° NNE 20:34:23 20° ENE 20:36:15 14° ESE
Resurs 1-3 4.2 20:31:21 10° SE 20:35:18 35° ENE 20:39:17 10° N
USA 215 3.9 20:34:29 10° ENE 20:40:09 31° SE 20:45:49 10° S
Meteor 1-4 Rocket 2.3 20:37:06 10° S 20:40:33 81° E 20:44:01 10° N
Delta 168 3.9 20:42:19 10° WSW 20:46:14 30° S 20:48:11 18° SE
Helios 1B rocket 3.1 20:43:10 10° NE 20:46:54 32° E 20:50:35 10° SSE
Spot 2 Rocket 3.5 20:46:32 10° SSE 20:51:33 62° ENE 20:56:36 10° N
Cosmos 2098 Rocket 4.4 20:45:01 10° S 20:52:09 81° E 20:59:47 10° N
Cosmos 2061 Rocket 4.4 20:47:14 10° SSE 20:53:06 40° E 20:59:01 10° NNE
Lacrosse 5 rocket 3.1 20:51:12 10° N 20:53:22 14° NE 20:54:09 14° NE
Cosmos 1544 4.0 20:49:55 10° SSW 20:53:27 51° W 20:57:02 10° N
In-Cosmos 22 4.3 20:49:38 10° NNW 20:54:55 74° W 21:00:10 10° S
CZ-2D R/B 3.3 20:53:52 13° SSE 20:57:08 53° ENE 21:00:56 10° N
Cosmos 1459 Rocket 4.2 20:51:47 10° SSE 20:57:44 48° E 21:03:38 10° NNE
Cosmos 1076 Rocket 3.3 20:55:09 10° N 20:59:23 71° E 21:03:36 10° SSE
Gblst 52 Del rocket 4.3 20:56:29 10° SSW 21:02:38 58° SE 21:07:37 13° NE
Timation 2 Rocket 4.2 20:57:03 10° N 21:03:01 46° ENE 21:06:20 24° SE
FENGYUN 3A 4.1 20:57:43 10° S 21:03:04 63° WSW 21:08:25 10° NNW
Okean 3 Rocket 4.2 20:59:53 10° NNW 21:04:12 59° W 21:08:34 10° S
Helios 1A 3.4 21:02:55 29° ESE 21:04:19 39° ENE 21:08:14 10° N
Cosmos 1447 Rocket 4.4 20:59:00 10° N 21:05:09 77° E 21:11:18 10° S
Cosmos 2173 Rocket 4.0 21:00:03 10° SSE 21:06:00 55° E 21:12:05 10° NNE
ALOS 3.2 21:01:43 10° S 21:06:13 49° W 21:10:45 10° NNW
Abrixas 2.2 21:03:59 10° NW 21:06:48 66° NE 21:06:58 64° ENE
Envisat 3.7 21:08:43 29° E 21:09:51 33° ENE 21:14:21 10° N
Tiangong 1 3.0 21:08:39 10° W 21:10:54 20° SW 21:11:53 17° SSW
Cosmos 1833 Rocket 2.7 21:07:53 10° NNW 21:13:29 64° ENE 21:16:33 27° SE
PSLV R/B 3.0 21:12:22 10° SW 21:15:21 65° S 21:15:21 65° S
Cosmos 1733 3.1 21:13:01 10° S 21:16:53 90° NNW 21:20:46 10° N
Meteor 1-21 Rocket 4.3 21:11:15 10° N 21:17:09 87° W 21:23:04 10° S
Cosmos 1470 2.8 21:14:51 10° S 21:18:50 80° W 21:22:49 10° N
SeaSat 1 2.7 21:15:19 13° SSE 21:19:43 67° WSW 21:24:38 10° NNW
GPS 2-05 Rocket1 3.5 21:16:57 10° WNW 21:20:24 46° N 21:21:02 41° NNE
Spot 1 4.2 21:18:18 31° SSE 21:20:27 66° ENE 21:25:18 10° N
ATLAS 5 CENTAUR R/B 3.2 21:17:02 10° WSW 21:21:20 38° NW 21:25:58 10° NNE
ERS-1 Rocket 4.4 21:23:15 21° NE 21:23:15 21° NE 21:26:02 10° NNE
Cosmos-2242 3.2 21:18:46 10° SSW 21:22:58 69° W 21:27:13 10° N
Cosmos 1766 Rocket 3.7 21:22:00 10° N 21:26:29 77° W 21:29:35 20° S
GP-B 3.2 21:22:23 10° S 21:26:48 75° W 21:31:15 10° N
Geosat 4.4 21:22:07 10° NNE 21:27:06 64° WNW 21:32:02 10° SW
USA 186 4.2 21:29:39 11° NNW 21:29:39 11° NNW 21:29:43 10° NNW
Cosmos 1048 Rocket 4.1 21:23:32 10° NNW 21:28:38 72° WSW 21:32:00 21° S
OAO 2 Rocket 3.3 21:23:51 10° WSW 21:29:01 74° SSE 21:30:18 51° E
CZ-3 Stage 3 3.5 20:53:07 10° W 21:34:38 84° S 21:38:05 39° E
Resurs 01 Rocket 3.2 21:32:14 10° SSW 21:36:14 34° W 21:40:16 10° NNW
Cosmos 2016 Rocket 3.8 21:31:58 10° S 21:38:11 74° E 21:44:19 10° N
Cosmos 1340 Rocket 2.8 21:34:26 10° N 21:38:09 76° N 21:38:09 76° N
CZ-4C R/B 4.2 21:34:51 10° S 21:34:54 10° S 21:34:54 10° S
ISS -0.7 21:42:12 10° NW 21:43:31 12° NNW 21:44:50 10° N
Cosmos 1725 Rocket 3.9 21:47:24 58° ESE 21:47:53 59° E 21:53:58 10° NNE
Meteor 1-29 4.4 21:46:25 10° N 21:49:41 38° WNW 21:50:30 33° WSW
Cosmos 2082 Rocket 3.0 21:48:21 10° NNW 21:53:46 48° WSW 21:56:37 26° SSW
Cosmos 1743 Rocket 4.0 21:53:11 10° N 21:56:52 59° NNW 21:56:52 59° NNW
H-II Stage 2 4.3 21:56:23 10° WSW 21:56:27 11° WSW 21:56:27 11° WSW
Meteor 1-16 Rocket 4.4 21:54:50 10° SSW 22:00:38 75° W 22:06:34 10° N
SL-08 R/B 4.5 21:56:15 21° S 22:00:45 86° W 22:07:11 10° N
Cosmos 2251 Rocket 4.1 22:05:12 10° NNW 22:09:13 52° N 22:09:13 52° N
Tsikada Rocket 4.3 22:09:06 10° N 22:14:02 55° NNE 22:14:02 55° NNE
Aurora 2 Rocket 4.3 22:10:45 10° WSW 22:15:38 34° SW 22:15:38 34° SW
USA 215 3.7 22:16:53 10° NNE 22:23:15 57° NW 22:29:36 10° WSW
Lacrosse 5 rocket 4.1 22:29:11 10° NW 22:29:53 15° NW 22:29:53 15° NW
Cosmos 2369 Rocket 4.4 22:43:23 17° N 22:43:23 17° N 22:44:36 10° N
